Home > Weather > Dormagen > Past weeks

Flag for Germany Past Weather in Dormagen, North Rhine-Westphalia, Germany — Yesterday and Last 2 Weeks

Now
73 °F

Passing clouds.


Feels Like: 75 °F
Forecast: 64 / 77 °F
Wind: 5 mph from Northwest

Location: Duesseldorf

Current Time: Jul 24, 2016 at 10:59:56 AM

Latest Report: Jul 24, 2016 at 10:20 AM


Visibility: 4 mi

Pressure: 30.12 "Hg

Humidity: 74%

Dew Point: 64 °F

Location of DormagenLocation

Past Weather in Dormagen — Graph

°F

Dormagen Temperature Yesterday

Maximum temperature yesterday: 81 °F (at 4:50 PM)
Minimum temperature yesterday: 66 °F (at 5:50 AM)
Average temperature yesterday: 72 °F

High & Low Weather Summary for the Past Weeks

 TemperatureHumidityPressure
High95 °F (Jul 20, 4:20 PM)100% (Jul 13, 3:50 AM)30.30 "Hg (Jul 13, 3:50 AM)
Low46 °F (Jul 14, 4:20 AM)30% (Jul 20, 2:50 PM)29.74 "Hg (Jul 10, 8:50 PM)
Average69 °F71%30.04 "Hg
* Reported Jul 9 10:20 AM — Jul 24 10:20 AM, Dormagen, Weather by CustomWeather, © 2016

Note: Actual official high and low records may vary slightly from our data, if they occured in-between our weather recording intervals... More about our weather records

Advertising

Dormagen Weather History for the Previous 24 Hours

Scroll right to see more
 ConditionsComfort  
Time TempWeatherWind HumidityBarometerVisibility
10:20 AM
Sun, Jul 24
73 °FPassing clouds.5 mph74%30.12 "Hg4 mi
9:20 AM68 °FFog.5 mph88%30.12 "Hg3 mi
8:50 AM66 °FFog.6 mph94%30.09 "Hg1 mi
8:20 AM64 °FFog.5 mph100%30.09 "Hg1 mi
7:50 AM64 °FFog.5 mph100%30.09 "Hg0 mi
7:20 AM64 °FMild.3 mph100%30.09 "Hg1 mi
6:50 AM61 °FCool.1 mph100%30.09 "HgN/A
6:20 AM61 °FFog.3 mph100%30.09 "HgN/A
5:50 AM59 °FFog.2 mph100%30.09 "HgN/A
5:20 AM61 °FFog.2 mph100%30.09 "HgN/A
4:50 AM61 °FFog.1 mph100%30.09 "HgN/A
4:20 AM61 °FFog.2 mph100%30.09 "HgN/A
3:50 AM61 °FFog.3 mph100%30.09 "HgN/A
3:20 AM63 °FFog.3 mph94%30.09 "HgN/A
2:50 AM61 °FFog.1 mph100%30.09 "HgN/A
2:20 AM61 °FFog.2 mph100%30.09 "HgN/A
1:50 AM63 °FFog.2 mph100%30.09 "HgN/A
1:20 AM63 °FFog.1 mph100%30.09 "HgN/A
12:50 AM66 °FClear.3 mph94%30.09 "Hg10 mi
12:20 AM64 °FClear.2 mph100%30.09 "Hg10 mi
11:50 PM
Sat, Jul 23
66 °FClear.1 mph94%30.09 "Hg10 mi
11:20 PM68 °FPassing clouds.3 mph88%30.09 "HgN/A
10:50 PM70 °FPassing clouds.5 mph83%30.09 "HgN/A
10:20 PM70 °FPassing clouds.6 mph83%30.09 "HgN/A
9:50 PM70 °FPassing clouds.7 mph83%30.07 "HgN/A
9:20 PM73 °FScattered clouds.3 mph74%30.07 "HgN/A
8:50 PM73 °FScattered clouds.2 mph74%30.07 "HgN/A
8:20 PM75 °FScattered clouds.6 mph69%30.07 "HgN/A
7:50 PM75 °FScattered clouds.3 mph74%30.07 "HgN/A
7:20 PM75 °FScattered clouds.6 mph74%30.07 "HgN/A
6:50 PM75 °FScattered clouds.5 mph74%30.07 "HgN/A
6:20 PM77 °FBroken clouds.8 mph65%30.07 "HgN/A
5:50 PM77 °FBroken clouds.7 mph65%30.07 "HgN/A
5:20 PM79 °FBroken clouds.6 mph61%30.07 "HgN/A
4:50 PM81 °FBroken clouds.6 mph62%30.07 "HgN/A
4:20 PM79 °FBroken clouds.7 mph65%30.07 "HgN/A
3:50 PM77 °FBroken clouds.5 mph65%30.07 "HgN/A
3:20 PM77 °FBroken clouds.7 mph65%30.07 "Hg5 mi
2:50 PM77 °FBroken clouds.8 mph69%30.07 "Hg5 mi
2:20 PM75 °FBroken clouds.8 mph74%30.07 "Hg6 mi
1:50 PM75 °FBroken clouds.7 mph74%30.07 "Hg5 mi
1:20 PM75 °FPartly sunny.6 mph74%30.07 "Hg5 mi
12:50 PM75 °FPartly sunny.5 mph74%30.07 "Hg5 mi
12:20 PM73 °FLight rain. Broken clouds.6 mph78%30.07 "Hg5 mi
11:50 AM73 °FLight rain. Broken clouds.7 mph78%30.07 "Hg5 mi
11:20 AM72 °FLight rain. Broken clouds.9 mph78%30.07 "Hg5 mi
10:50 AM72 °FLight rain. Broken clouds.8 mph78%30.07 "Hg5 mi
10:20 AM72 °FScattered showers. Broken clouds.8 mph83%30.04 "Hg5 mi
Weather by CustomWeather, © 2016

See weather overviewHow to use our weather pages